{"data":{"norad_id":66471,"epoch":"2026-05-24T15:25:31.593792Z","epoch_age_seconds":99227,"freshness":"FRESH","line1":"1 66471U 25262R   26144.64272678  .00006557  00000+0  24753-3 0  9996","line2":"2 66471  42.9996 227.1211 0001587 273.4758  86.5912 15.27585394 30528","mean_motion":15.27585394,"eccentricity":0.0001587,"inclination_deg":42.9996,"raan_deg":227.1211,"arg_perigee_deg":273.4758,"mean_anomaly_deg":86.5912,"bstar":0.00024753,"rev_number":3052,"period_min":94.266415851839,"perigee_km":481.94407684051,"apogee_km":484.12181218089,"semimajor_km":6861.1699445107,"source":"CELESTRAK","updated_at":"2026-05-25T13:38:21.217049Z"}}